Αρχική σελίδα
METAR-TAF:

METAR-TAF

Αεροδρόμια :

Lawrence Municipal Airport

Lawrence, Κάνσας, Ηνωμένες Πολιτείες Αμερικής

γεωγραφικό πλάτος: 39-00-30N, γεωγραφικό μήκος: 095-12-42W, υψόμετρο: 253 μ

Παρών καιρός

Η αναφορά έγινε 46 λεπτά πριν, στις 17:52 UTC
Άνεμος 5 kt από
Θερμοκρασία -2°C
Υγρασία 69%
Πίεση 1028 hPa
Ορατότητα: 16.1 χλμ
Νεφοσκεπής σε ύψος 2200 πόδια

METAR: KLWC 181752Z AUTO 32005KT 10SM OVC022 M02/M07 A3035 RMK AO2 SLP285 T10171067 11011 21039 58013 TSNO

Χρόνος: 12:38 (18:38 UTC)


TAF: λείπει

Μετεωρολογικές αναφορές και προγνώσεις για περισσότερα από 4000 αεροδρόμια (δελτία METAR και TAF).

Οι διαθέσιμοι σταθμοί απεικονίζονται στο χάρτη με κίτρινες και κόκκινες κουκκίδες.

Μετακινήστε το ποντίκι πάνω από τις κουκκίδες για να δείτε το όνομα του σταθμού.

Στη συνέχεια, κάντε κλικ για να δείτε τις μετεωρολογικές αναφορές και τις προγνώσεις καιρού.

Για να αλλάξετε το χάρτη: κάντε κλικ στα πράσινα κουμπιά με τον μαύρο σταυρό για να ζουμάρετε, στο πράσινο κουμπί με την παύλα για να αφαιρέσετε το ζουμ ή στα πράσινα βέλη για να αντιπαραβάλλετε χάρτες.


METAR-TAF: